Location: The D'Auria's Ocala Star Observatory
(29.0276°N, 82.1742°W)
Time: 12:02:49
(UTC-04:00)

Daily predictions for brighter satellites

Satellite Brightness Start Highest point End
(mag) Time Altitude Azimuth Time Altitude Azimuth Time Altitude Azimuth
Cosmos 2233 Rocket 4.1 20:35:48 10° N 20:41:57 59° E 20:48:00 10° SSE
Cosmos 2058 Rocket 4.4 20:41:29 10° NNE 20:44:55 22° ENE 20:48:19 10° SE
COSMOS 2455 3.7 20:41:17 10° SSE 20:46:10 27° ESE 20:51:04 10° NE
FENGYUN 3A 4.4 20:41:34 10° SE 20:46:24 35° ENE 20:51:15 10° N
OTV 4 2.2 20:44:49 10° W 20:47:16 23° SW 20:49:42 10° SSE
Cosmos 1844 Rocket 4.0 20:43:09 10° NW 20:48:25 41° WSW 20:53:38 10° S
IUS-18 SRM-1 4.4 20:44:27 10° W 20:49:07 71° S 21:15:32 10° ESE
Delta 168 2.9 20:46:47 10° WSW 20:49:45 40° S 20:53:19 10° E
FengYun 1-2 T 4.2 20:44:29 10° SSE 20:49:58 75° ENE 20:55:27 10° N
Meteor 2-4 Rocket 4.0 20:44:36 10° SSE 20:50:12 51° E 20:55:54 10° NNE
Aureole 2 Rocket 2.7 20:50:41 10° S 20:54:42 61° ESE 20:58:24 10° NNE
Cosmos 2297 4.1 20:50:18 10° N 20:55:48 48° ENE 21:01:18 10° SE
ATLAS 3B R/B 3.9 20:54:00 10° SSE 20:59:38 23° ESE 21:05:16 10° ENE
Meteor 1-19 Rocket 4.3 20:54:56 10° S 21:00:34 89° W 21:06:11 10° N
Cosmos 1606 Rocket 3.6 20:58:42 10° N 21:03:05 64° E 21:07:25 10° SSE
deb Chang Zheng 4 4.2 21:00:05 10° NNE 21:04:05 35° E 21:08:03 10° SSE
H-2A R/B 3.1 21:01:17 10° SSE 21:05:04 47° ENE 21:08:53 10° N
H-2A R/B 3.5 21:02:18 11° ESE 21:05:10 20° ENE 21:08:21 10° NNE
Cosmos 1626 Rocket 4.3 21:08:30 10° SSE 21:12:28 32° E 21:16:25 10° NNE
Abrixas rocket 3.9 21:16:06 10° NNW 21:19:00 25° NE 21:21:07 15° E
Okean 2 3.4 21:15:13 10° S 21:19:23 87° W 21:23:35 10° N
ISS -2.1 21:17:44 10° WSW 21:20:51 44° NW 21:24:00 10° NNE
ERS-1 Rocket 3.4 21:17:06 14° SE 21:21:05 43° ENE 21:25:49 10° N
Cosmos 2228 3.6 21:18:28 10° N 21:22:38 40° E 21:25:30 18° SE
ALOS 2.4 21:22:35 10° S 21:27:15 78° WSW 21:31:55 10° NNW
Lacrosse 4 Rocket 3.3 21:30:12 13° ENE 21:30:12 13° ENE 21:31:06 10° ENE
Envisat 4.1 21:28:22 19° ESE 21:30:46 27° ENE 21:35:00 10° NNE
Milstar 3 Cent rocket 2.8 21:23:52 10° W 21:32:36 56° SSW 21:35:59 22° SE
Cosmos 2278 Rocket 3.7 21:28:18 10° NW 21:33:21 34° WSW 21:38:23 10° SSW
APEX 4.2 21:28:58 10° N 21:33:29 55° ENE 21:37:10 21° SE
SPOT 5 4.0 21:34:23 20° E 21:35:38 22° ENE 21:39:00 10° NNE
Resurs 01 Rocket 4.5 21:33:38 10° WSW 21:35:40 13° W 21:37:42 10° WNW
CZ-2C R/B 0.2 21:35:44 59° SE 21:36:02 71° ENE 21:38:19 10° N
Nimbus 7 Rocket 4.4 21:32:36 10° NNE 21:38:29 63° ESE 21:44:16 10° S
Fermi 3.9 21:37:36 10° WSW 21:41:37 52° S 21:43:05 33° ESE
CZ-4 DEB 4.2 21:39:45 11° SSW 21:42:40 36° W 21:45:41 10° NNW
Cosmos 2369 Rocket 4.1 21:42:20 10° NNE 21:45:13 14° ENE 21:46:52 13° ENE
Cosmos 1666 2.7 21:45:43 10° N 21:49:38 88° W 21:51:35 28° S
Cosmos 1891 Rocket 4.3 21:47:45 10° N 21:53:52 81° E 21:58:01 21° S
ATLAS CENTAUR Rocket 3.9 21:48:01 10° WSW 21:53:58 82° S 22:40:30 10° E
ATLAS CENTAUR Rocket 3.9 21:48:02 10° WSW 21:53:58 82° S 22:40:30 10° E
Mugunghwa Rocket 4.4 21:49:43 10° SW 21:55:31 39° SSE 21:57:42 30° ESE
Cosmos 1461 3.0 21:52:19 10° NNW 21:56:27 57° ENE 21:57:21 45° ESE
USA 186 4.3 21:56:19 10° SW 21:58:15 16° W 22:00:06 10° NW
PSLV R/B 4.3 22:01:57 33° NE 22:01:57 33° NE 22:04:11 10° N
Atlas Centaur 2 2.9 21:55:07 10° W 22:02:24 84° N 22:09:41 15° E
Cosmos 1900 4.5 22:11:17 45° SSE 22:12:22 53° ESE 22:17:22 10° NE
OAO 3 Copernicus 4.2 22:07:54 10° WNW 22:12:58 86° NNE 22:14:17 51° ESE
Cosmos 1515 3.5 22:13:45 76° SSE 22:14:00 83° E 22:17:52 10° N
YAOGAN 6 4.1 22:17:10 26° NE 22:17:10 26° NE 22:19:31 10° NNE
Tsikada Rocket 4.4 22:10:08 10° SSW 22:16:28 63° W 22:22:49 10° N
Cosmos 1939 Rocket 3.2 22:15:40 45° SSW 22:16:46 66° W 22:20:54 10° NNW
ATLAS 5 CENTAUR R/B 2.6 22:14:21 10° SW 22:15:53 22° SSW 22:15:53 22° SSW
Cosmos 1066 Rocket 4.2 22:16:11 44° SSE 22:17:48 61° E 22:23:29 10° NNE
SeaSat 1 2.7 22:21:31 46° E 22:22:08 49° ENE 22:26:53 10° N
Cosmos 1825 Rocket 3.4 22:22:14 70° ESE 22:22:19 70° E 22:26:44 10° N
H-2A R/B 4.0 22:26:31 14° ENE 22:26:31 14° ENE 22:28:36 10° NE
Cosmos 1190 Rocket 3.9 22:25:34 39° SSW 22:27:38 88° ESE 22:32:58 10° NNE
COSMOS 2455 4.4 22:26:25 10° SW 22:31:51 35° WNW 22:37:19 10° N
GEOS 3 Rocket 4.4 22:31:15 33° SSW 22:32:53 42° WSW 22:37:51 10° NW
SPOT 1/Viking Rocket 3.7 22:34:19 55° E 22:34:26 55° ENE 22:39:27 10° N
Cosmos 1812 Rocket 4.0 22:31:03 10° NNW 22:35:23 56° W 22:35:58 51° SW
MetOp-A 4.0 22:34:38 65° SSE 22:35:28 84° ENE 22:40:51 10° N
Cosmos 1943 3.8 22:33:45 10° SSW 22:39:16 56° WNW 22:44:52 10° N
CZ-4B R/B 3.8 22:34:17 10° N 22:39:23 68° WNW 22:41:24 37° SW
Cosmos 1346 Rocket 3.8 22:41:40 39° N 22:41:40 39° N 22:44:13 10° N
H-2A R/B 4.0 22:39:27 19° SW 22:41:00 23° W 22:44:27 10° NW
Cosmos 676 Rocket 4.0 22:44:54 68° ENE 22:44:54 68° ENE 22:49:48 10° NNE
Cosmos 1943 Rocket 4.0 22:42:47 10° NNE 22:46:09 18° ENE 22:46:09 18° ENE
ATLAS 3B R/B 3.4 22:42:16 10° SW 22:49:51 61° WNW 22:57:23 10° NNE
Cosmos 2142 Rocket 4.3 22:43:47 10° N 22:50:03 78° E 22:50:41 70° SE
USA 245 4.2 22:51:01 75° SSE 22:51:36 87° ENE 22:57:03 10° N
Meteor 1-21 4.1 22:55:45 77° ENE 22:55:45 77° ENE 23:01:25 10° N
Cosmos 1634 Rocket 3.9 22:53:34 10° N 22:59:45 82° W 23:00:25 72° SSW
USA 234 3.8 23:03:51 43° ENE 23:05:01 47° NE 23:11:15 10° NNW
Lacrosse 4 Rocket 3.2 23:06:24 25° WNW 23:07:03 26° WNW 23:10:31 10° N
ARGOS 3.4 23:14:27 68° NW 23:14:27 68° NW 23:19:20 10° NNW
Cosmos 2279 Rocket 4.0 23:15:40 10° N 23:21:24 75° NNE 23:21:24 75° NNE
Terra 3.3 23:27:07 32° N 23:27:07 32° N 23:29:46 10° N
Cosmos 2369 Rocket 2.8 23:24:04 10° NNW 23:28:41 53° WNW 23:28:41 53° WNW
USA 238 DEB 3.8 23:28:44 64° WSW 23:29:49 75° WNW 23:36:55 10° NNE
USA 238 3.8 23:28:57 66° WSW 23:29:55 76° WNW 23:37:01 10° NNE
